#timestamp,LO_Frequency,Hit,StdDev 
1513227615.4,286047001.5,N
1513227635.2,286046999.0,N
1513227655.1,286046996.3,N
1513227656.0,286046996.3,N
1513227675.8,286046997.2,N
1513227695.6,286046999.4,N
1513227715.5,286046995.8,N
1513227735.3,286046996.1,N
1513227755.2,286046987.4,Y
1513227775.9,286046989.9,P
1513227795.7,286046989.5,N
1513227815.6,286046987.4,P
1513227835.4,286046993.3,N
1513227855.2,286046997.8,N
1513227875.1,286046996.0,N
1513227876.0,286046996.0,N
1513227895.8,286046996.2,N
1513227915.7,286046993.0,N
1513227935.5,286046993.6,N
1513227955.3,286046995.0,N
1513227975.2,286046999.0,N
1513227995.0,286046996.9,N
1513227995.9,286046996.9,N
1513228015.8,286046994.9,N
1513228035.6,286046997.2,N
1513228055.4,286047000.7,N
1513228075.3,286046995.2,N
1513228095.1,286046998.5,N
1513228115.9,286047002.8,N
1513228135.7,286047004.3,N
1513228155.5,286047001.9,N
1513228175.4,286047004.3,N
1513228195.2,286047001.6,N
1513228215.0,286046997.2,N
1513228215.9,286046997.2,N
1513228235.8,286046997.7,N
1513228255.6,286046997.1,N
1513228275.5,286046998.5,N
1513228295.3,286047000.8,N
1513228315.1,286047000.5,N
1513228335.9,286046999.2,N
1513228355.7,286047000.7,N
1513228375.5,286047002.2,N
1513228395.4,286047000.2,N
1513228415.2,286047002.3,N
1513228435.1,286046998.2,N
1513228436.0,286046998.2,N
1513228455.8,286046998.6,N
1513228475.6,286047000.0,N
1513228495.5,286047003.3,N
1513228515.3,286047004.3,N
1513228535.2,286047002.0,N
1513228555.9,286047007.6,N
1513228575.7,286047004.1,N
1513228595.6,286046998.1,N
1513228615.4,286046999.0,N
1513228635.2,286046998.2,N
1513228655.1,286046995.6,N
1513228656.0,286046995.6,N
1513228675.8,286047002.5,N
1513228695.7,286047002.4,N
1513228715.5,286046998.3,N
1513228735.3,286046997.1,N
1513228755.2,286046995.4,N
1513228775.0,286046999.5,N
1513228775.9,286046999.5,N
1513228795.8,286047001.1,N
1513228815.6,286047001.3,N
1513228835.4,286046998.1,N
1513228855.3,286046999.0,N
1513228875.1,286046999.9,N
1513228895.8,286046995.4,N
1513228915.7,286046996.7,N
1513228935.5,286046997.5,N
1513228955.4,286046998.3,N
1513228975.2,286047003.8,N
1513228995.0,286047002.7,N
1513228995.9,286047002.7,N
1513229015.8,286047000.8,N
1513229035.6,286046999.5,N
1513229055.4,286046999.6,N
1513229075.3,286047002.1,N
1513229095.1,286046997.6,N
1513229115.9,286046996.1,N
1513229135.7,286046992.2,Y
1513229155.5,286046998.0,P
1513229175.4,286046995.0,P
1513229195.2,286046997.2,N
1513229215.1,286046996.6,N
1513229216.0,286046996.6,N
1513229235.8,286046997.2,N
1513229255.6,286046998.2,N
1513229275.5,286047003.9,Y
1513229295.3,286047004.6,P
1513229315.2,286047001.5,N
1513229335.9,286046998.9,N
1513229355.7,286046998.0,N
1513229375.6,286046997.5,N
1513229395.4,286047001.1,N
1513229415.2,286046997.4,N
1513229435.1,286046988.5,Y
1513229436.0,286046988.5,P
1513229455.8,286046995.2,N
1513229475.7,286046997.2,N
1513229495.5,286047001.2,N
1513229515.3,286046996.9,N
1513229535.2,286046995.0,N
1513229555.0,286046997.7,N
1513229555.9,286046997.7,N
1513229575.8,286046990.1,N
1513229595.6,286046987.0,Y
1513229615.4,286046996.0,P
1513229635.3,286046993.0,P
1513229655.1,286046996.3,N
1513229675.9,286046998.0,N
1513229695.7,286047001.0,N
1513229715.5,286046996.7,N
1513229735.4,286046997.0,N
1513229755.2,286046999.5,N
1513229775.0,286047002.3,N
1513229776.0,286047002.3,N
1513229795.8,286046998.1,N
1513229815.6,286046999.1,N
1513229835.5,286046995.3,N
1513229855.3,286046999.2,N
1513229875.1,286046996.8,N
1513229895.9,286046999.5,N
1513229915.7,286047002.3,N
1513229935.6,286047000.5,N
1513229955.4,286047000.7,N
1513229975.2,286046996.1,N
1513229995.1,286046998.8,N
1513229996.0,286046998.8,N
1513230015.8,286047000.6,N
1513230035.7,286047002.9,N
1513230055.5,286047003.2,N
1513230075.3,286047006.6,N
1513230095.2,286047005.6,N
1513230115.0,286047005.3,N
1513230115.9,286047005.3,N
1513230135.7,286047004.2,N
1513230155.6,286047003.6,N
1513230175.4,286047004.2,N
1513230195.3,286047001.4,N
1513230215.1,286047004.9,N
1513230216.0,286047004.9,N
1513230235.8,286047004.5,N
1513230255.7,286047006.1,N
1513230275.5,286047004.5,N
1513230295.4,286047003.0,N
1513230315.2,286047002.4,N
1513230335.0,286047000.4,N
1513230335.9,286047000.4,N
1513230355.8,286047003.6,N
1513230375.6,286047001.2,N
1513230395.4,286047002.8,N
1513230415.3,286047003.1,N
1513230435.1,286047007.1,N
1513230455.9,286047003.1,N
1513230475.7,286047005.7,N
1513230495.5,286046999.0,N
1513230515.4,286046996.0,N
1513230535.2,286046999.4,N
1513230555.0,286046997.7,N
1513230556.0,286046997.7,N
1513230575.8,286046996.3,N
1513230595.6,286046991.0,N
1513230615.5,286046999.2,N
1513230635.3,286046998.4,N
1513230655.1,286046997.3,N
1513230675.9,286046992.6,N
1513230695.7,286046993.1,N
1513230715.6,286046995.2,N
1513230735.4,286046998.8,N
1513230755.2,286046998.5,N
1513230775.1,286047003.2,N
1513230776.0,286047003.2,N
1513230795.8,286047002.8,N
1513230815.6,286047003.2,N
1513230835.5,286047001.7,N
1513230855.3,286046996.9,N
1513230875.2,286047001.0,N
1513230895.9,286047001.1,N
1513230915.7,286046997.7,N
1513230935.6,286046995.6,N
1513230955.4,286046997.0,N
1513230975.3,286046995.2,N
1513230995.1,286046994.6,N
1513230996.0,286046994.6,N
1513231015.8,286046998.3,N
1513231035.7,286046999.1,N
1513231055.5,286047001.2,N
1513231075.3,286046998.9,N
1513231095.2,286047001.0,N
1513231115.0,286046999.0,N
1513231115.9,286046999.0,N
1513231135.8,286046993.8,N
1513231155.6,286046995.5,N
1513231175.4,286046992.1,N
1513231195.3,286046990.9,N
